Weather observations for the past three days for
Americus Souther Field Airport
Imperial (Metric)
Date Time (edt) Wind (mph) Vis. (mi.) Weather Sky Cond. Temperature (ºF) Relative Humidity Wind Chill (°F) Heat Index (°F) Pressure Precipitation (in)
Air Dwpt 6 hour altimeter (in) sea level (mb) 1 hr 3 hr 6 hr
Max. Min.
12 20:35 Calm 9.00 Fair CLR 85.6 71.4 63% 91 30.06 0.0
12 20:15 Calm 9.00 Fair CLR 87.8 70.7 57% 93 30.06 0.0
12 19:55 Calm 10.00 Fair CLR 89.1 69.3 52% 94 30.05 0.0
12 19:35 SE 5 10.00 Fair CLR 89.6 68.4 50% 94 30.05 0.0
12 19:15 Calm 10.00 Fair CLR 89.4 68.4 50% 93 30.04 0.0
12 18:55 Calm 9.00 A Few Clouds FEW070 90 66.4 46% 93 30.04 0.0
12 18:35 Calm 9.00 Overcast BKN070 OVC100 90.1 64.9 43% 92 30.03 0.0
12 18:15 Vrbl 5 10.00 Overcast BKN070 OVC100 92.7 64.6 40% 95 30.03 0.0
12 17:55 Vrbl 5 9.00 Overcast BKN070 OVC100 93.4 64.4 38% 95 30.03 0.0
12 17:35 Calm 9.00 Mostly Cloudy BKN070 92.3 65.5 41% 95 30.02 0.0
12 17:15 Vrbl 7 9.00 Overcast BKN070 OVC090 92.8 65.3 40% 95 30.02 0.0
12 16:35 Vrbl 7 8.00 Partly Cloudy FEW070 SCT100 93.4 63.5 37% 95 30.02 0.0
12 16:15 SW 8 7.00 A Few Clouds FEW065 93 64 38% 95 30.03 0.0
12 15:55 Calm 9.00 Mostly Cloudy BKN065 91.6 66.6 44% 95 30.03 0.0
12 15:35 Calm 10.00 Mostly Cloudy BKN065 BKN085 89.8 65.7 45% 92 30.04 0.0
12 15:15 NE 3 10.00 Overcast BKN065 OVC100 89.2 66.7 47% 92 30.05 0.0
12 14:55 NE 5 9.00 Mostly Cloudy SCT070 BKN080 BKN095 89.8 66.2 46% 92 30.05 0.0
12 14:35 Calm 8.00 Partly Cloudy FEW065 SCT090 SCT350 SCT370 90.5 62.4 39% 91 30.05 0.0
12 14:15 Calm 6.00 Mostly Cloudy with Haze BKN065 91.9 63.5 39% 93 30.05 0.0
12 13:55 SW 3 9.00 Mostly Cloudy BKN070 BKN370 90.9 63.5 40% 92 30.05 0.0
12 13:35 Calm 9.00 Mostly Cloudy BKN065 88.9 64.9 45% 91 30.06 0.0
12 13:15 Vrbl 5 9.00 A Few Clouds FEW065 89.4 64.2 43% 91 30.07 0.0
12 12:55 Calm 9.00 A Few Clouds FEW065 90.3 65.1 43% 92 30.07 0.0
12 12:35 Calm 10.00 Fair CLR 90 63.1 41% 91 30.07 0.0
12 12:15 Calm 8.00 Fair CLR 90.3 64 42% 92 30.07 0.0
12 11:55 Vrbl 5 9.00 Fair CLR 90 65.5 44% 92 30.07 0.0
12 11:35 Calm 9.00 A Few Clouds FEW260 88.5 66.2 48% 91 30.07 0.0
12 11:15 Calm 10.00 A Few Clouds FEW260 87.8 65.8 48% 90 30.07 0.0
12 10:55 NE 5 9.00 A Few Clouds FEW260 86.7 69.6 57% 91 30.07 0.0
12 10:35 Calm 9.00 Fair CLR 85.1 71.2 63% 91 30.06 0.0
12 09:55 Calm 9.00 A Few Clouds FEW250 82.9 73 72% 89 30.05 0.0
12 09:35 NE 3 9.00 Partly Cloudy SCT250 81.3 72.1 74% 86 30.05 0.0
12 09:15 Calm 8.00 Fair CLR 79.9 72.1 77% 84 30.05 0.0
12 08:55 N 3 9.00 Fair CLR 77.7 71.2 81% 80 30.04 0.0
12 08:35 Calm 7.00 Fair CLR 76.6 70 80% 78 30.04 0.0
12 08:15 Calm 8.00 Fair CLR 75.4 70.2 84% 76 30.03 0.0
12 07:55 Calm 10.00 Fair CLR 73 72.1 97% 30.03 0.0
12 07:35 Calm 10.00 Fair CLR 70.9 70.9 100% 30.03 0.0
12 07:15 Calm 9.00 Fair CLR 69.8 69.8 100% 30.02 0.0
12 06:55 Calm 10.00 Fair CLR 68.9 68.9 100% 30.01 0.0
12 06:35 Calm 10.00 Fair CLR 69.1 69.1 100% 30.01 0.0
12 06:15 Calm 10.00 Fair CLR 69.3 69.3 100% 30 0.0
12 05:55 Calm 10.00 Fair CLR 69.3 69.3 100% 30 0.0
12 05:35 Calm 10.00 Fair CLR 69.4 69.4 100% 29.99 0.0
12 05:15 Calm 10.00 Fair CLR 68.9 68.9 100% 29.99 0.0
12 04:55 Calm 10.00 Fair CLR 70.2 70.2 100% 29.99 0.0
12 04:35 Calm 10.00 Fair CLR 70.2 70.2 100% 29.99 0.0
12 04:15 Calm 10.00 Fair CLR 69.6 69.6 100% 29.99 0.0
12 03:55 Calm 10.00 Fair CLR 69.4 69.4 100% 29.99 0.0
12 03:35 Calm 10.00 Fair CLR 70 69.8 99% 29.99 0.0
12 03:15 Calm 10.00 Fair CLR 69.6 69.6 100% 29.99 0.0
12 02:55 Calm 10.00 Fair CLR 70.3 70.3 100% 29.98 0.0
12 02:35 Calm 10.00 Fair CLR 70.5 70.5 100% 29.98 0.0
12 02:15 Calm 10.00 Fair CLR 70.7 70.7 100% 29.99 0.0
12 01:55 Calm 10.00 Fair CLR 71.2 71.2 100% 29.99 0.0
12 01:35 Calm 10.00 Fair CLR 72.3 70.3 94% 29.99 0.0
12 01:15 Calm 10.00 Fair CLR 74.3 69.3 84% 29.99 0.0
12 00:55 Calm 10.00 Fair CLR 73.8 69.8 88% 29.99 0.0
12 00:35 Calm 10.00 Fair CLR 74.1 70.2 88% 29.99 0.0
12 00:15 Calm 10.00 Fair CLR 73.4 70.9 92% 29.99 0.0
11 23:55 Calm 10.00 Fair CLR 73.9 71.1 91% 30 0.0
11 23:35 W 3 10.00 Fair CLR 75.6 71.2 87% 76 30 0.0
11 23:15 Calm 10.00 Fair CLR 73.4 72.7 98% 29.99 0.0
11 22:55 Calm 10.00 Fair CLR 74.1 72.1 94% 29.99 0.0
11 22:35 Calm 10.00 Fair CLR 73.9 72.7 96% 29.99 0.0
11 22:15 Calm 10.00 Fair CLR 75.6 71.2 87% 76 29.99 0.0
11 21:55 Calm 10.00 Fair CLR 76.1 72.1 88% 76 29.98 0.0
11 21:35 Calm 10.00 Fair CLR 77.5 71.8 83% 79 29.98 0.0
11 20:55 Calm 10.00 Fair CLR 80.4 73.2 79% 85 29.98 0.0
11 20:35 Calm 10.00 Fair CLR 83.8 66 55% 86 29.97 0.0
11 20:15 NE 3 10.00 Fair CLR 84.9 67.3 56% 88 29.97 0.0
11 19:55 N 5 10.00 Fair CLR 87.4 64.4 46% 89 29.97 0.0
11 19:35 Vrbl 6 10.00 Fair CLR 89.1 62.2 41% 90 29.96 0.0
11 19:15 NW 6 10.00 Fair CLR 90 61.2 38% 90 29.95 0.0
11 18:55 N 6 10.00 Fair CLR 90.3 60.3 37% 90 29.95 0.0
11 18:35 NW 5 10.00 Fair CLR 90.5 60.4 37% 90 29.95 0.0
11 18:15 N 6 10.00 Fair CLR 90.1 59.7 36% 90 29.95 0.0
11 17:55 Vrbl 5 9.00 Fair CLR 90.7 59.4 35% 90 29.96 0.0
11 17:35 NW 9 10.00 Fair CLR 90.7 58.6 34% 90 29.96 0.0
11 17:15 Vrbl 6 10.00 Fair CLR 90.7 59.2 35% 90 29.96 0.0
11 16:55 NW 6 10.00 Fair CLR 90.9 60.1 36% 91 29.96 0.0
11 16:35 Vrbl 6 10.00 Fair CLR 90.7 61.2 37% 91 29.96 0.0
11 16:15 Vrbl 7 10.00 Fair CLR 91.4 59.5 34% 91 29.96 0.0
11 15:55 NW 10 10.00 Fair CLR 91.4 59.5 34% 91 29.97 0.0
11 15:35 Vrbl 5 10.00 Fair CLR 90 60.1 37% 90 29.97 0.0
11 15:15 NW 8 10.00 Fair CLR 90.1 58.6 35% 89 29.97 0.0
11 14:55 NW 9 10.00 Fair CLR 89.4 60.6 38% 89 29.97 0.0
11 14:35 W 10 10.00 Fair CLR 90 60.1 37% 90 29.97 0.0
11 14:15 NW 5 10.00 A Few Clouds FEW330 88.9 62.2 41% 89 29.97 0.0
11 13:55 NW 9 10.00 A Few Clouds FEW370 88.9 61.3 40% 89 29.98 0.0
11 13:35 Vrbl 7 10.00 Fair CLR 87.8 62.1 42% 88 29.99 0.0
11 13:15 Vrbl 7 10.00 A Few Clouds FEW350 87.1 62.1 43% 88 29.99 0.0
11 12:55 N 8 10.00 A Few Clouds FEW280 86.9 59.5 40% 86 30 0.0
11 12:35 N 9 10.00 A Few Clouds FEW270 85.8 61.7 44% 86 30 0.0
11 12:15 N 10 10.00 A Few Clouds FEW270 85.6 61 44% 86 30.01 0.0
11 11:55 Vrbl 7 10.00 Fair CLR 84.4 62.2 47% 85 30.01 0.0
11 11:35 N 9 10.00 Fair CLR 83.8 64.4 52% 85 30.01 0.0
11 11:15 N 7 10.00 Fair CLR 81.9 64 55% 83 30 0.0
11 10:55 Vrbl 6 10.00 Fair CLR 82.2 65.7 57% 84 30 0.0
11 10:35 N 6 10.00 Fair CLR 82.4 66.7 59% 85 30 0.0
11 10:15 N 9 10.00 Fair CLR 82.4 66 58% 85 30.01 0.0
11 09:55 N 6 10.00 Fair CLR 81.7 66.7 61% 84 30.01 0.0
11 09:35 N 8 10.00 Fair CLR 81.7 68 63% 85 30.01 0.0
11 09:15 N 5 10.00 Fair CLR 80.2 68.4 67% 83 30 0.0
11 08:55 Vrbl 6 10.00 Fair CLR 79 68.2 70% 81 30 0.0
11 08:35 N 5 10.00 Fair CLR 77.4 68.5 74% 79 30 0.0
11 08:15 NW 5 10.00 Fair CLR 75.9 68.5 78% 77 29.99 0.0
11 07:55 NW 6 10.00 Fair CLR 74.7 68 80% 29.99 0.0
11 07:35 N 3 10.00 Fair CLR 73.8 68.4 83% 29.98 0.0
11 07:15 Vrbl 3 10.00 Fair CLR 73 68 84% 29.97 0.0
11 06:55 N 5 10.00 Fair CLR 73 68 84% 29.97 0.0
11 06:35 N 6 10.00 Fair CLR 73.2 68.2 84% 29.96 0.0
11 06:15 NW 5 10.00 Fair CLR 73.8 68.4 83% 29.96 0.0
11 05:55 NW 5 10.00 Fair CLR 74.1 68.5 83% 29.96 0.0
11 05:35 NW 5 10.00 Fair CLR 74.3 68.5 82% 29.96 0.0
11 05:15 NW 5 10.00 Fair CLR 74.1 68.7 83% 29.96 0.0
11 04:55 NW 3 10.00 Fair CLR 74.1 68.9 84% 29.95 0.0
11 04:35 Vrbl 5 10.00 Fair CLR 74.1 68.9 84% 29.95 0.0
11 04:15 Calm 10.00 Fair CLR 73.8 69.3 86% 29.95 0.0
11 03:55 Calm 10.00 Fair CLR 74.3 69.1 84% 29.95 0.0
11 03:35 Vrbl 3 10.00 Fair CLR 74.1 69.8 86% 29.95 0.0
11 03:15 Calm 10.00 Fair CLR 73.9 70.3 89% 29.95 0.0
11 02:35 W 3 10.00 Fair CLR 74.8 70.5 86% 29.95 0.0
11 02:15 Calm 10.00 Fair CLR 75.4 70.3 84% 76 29.95 0.0
11 01:35 Calm 10.00 Fair CLR 76.3 70.7 83% 77 29.96 0.0
11 01:15 NW 3 10.00 Fair CLR 76.6 71.2 83% 78 29.96 0.0
11 00:55 W 3 10.00 Fair CLR 77 72 85% 78 29.96 0.0
11 00:35 W 3 10.00 Fair CLR 77.7 72.1 83% 80 29.96 0.0
11 00:15 W 3 10.00 Fair CLR 78.4 72.3 82% 81 29.96 0.0
10 23:55 W 5 10.00 Fair CLR 78.8 72.5 81% 82 29.96 0.0
10 23:35 W 3 10.00 A Few Clouds FEW050 79 72.9 82% 82 29.96 0.0
10 23:15 Calm 10.00 A Few Clouds FEW050 79.5 72.9 80% 83 29.96 0.0
10 22:55 W 3 10.00 A Few Clouds FEW049 79.9 73.2 80% 84 29.95 0.0
10 22:35 W 5 10.00 Partly Cloudy SCT050 80.2 73.2 79% 85 29.96 0.0
10 22:15 W 3 10.00 Partly Cloudy SCT055 80.6 73.6 79% 85 29.95 0.0
10 21:55 Calm 10.00 A Few Clouds FEW055 77.7 75.9 94% 80 29.94 0.0
10 21:35 Calm 10.00 Fair CLR 80.4 73 78% 85 29.94 0.0
10 21:15 W 3 10.00 A Few Clouds FEW220 83.7 69.6 63% 88 29.94 0.0
10 20:55 W 3 10.00 Partly Cloudy FEW050 SCT220 83.8 70.2 64% 88 29.94 0.0
10 20:35 W 5 10.00 A Few Clouds FEW220 85.5 69.4 59% 90 29.94 0.0
10 20:15 W 5 10.00 Fair CLR 86 69.6 58% 90 29.94 0.0
10 19:55 W 6 10.00 Fair CLR 87.4 69.8 56% 92 29.93 0.0
10 19:35 W 10 10.00 A Few Clouds FEW050 87.6 68.9 54% 92 29.94 0.0
10 19:15 W 8 10.00 Partly Cloudy SCT050 88.5 69.4 53% 93 29.93 0.0
10 18:55 W 9 10.00 A Few Clouds FEW049 88.5 69.8 54% 94 29.93 0.0
10 18:35 W 9 10.00 Partly Cloudy SCT049 89.1 70.2 54% 94 29.93 0.0
10 18:15 W 10 10.00 A Few Clouds FEW230 89.2 69.3 52% 94 29.93 0.0
10 17:55 W 8 10.00 A Few Clouds FEW047 88.5 70 54% 94 29.93 0.0
10 17:35 W 9 10.00 Fair CLR 89.1 70 53% 94 29.93 0.0
10 17:15 W 10 10.00 A Few Clouds FEW200 89.1 70.5 54% 95 29.93 0.0
10 16:55 W 9 10.00 Partly Cloudy FEW047 SCT190 87.8 71.2 58% 94 29.92 0.0
10 16:35 SW 12 10.00 Mostly Cloudy BKN048 88.5 71.8 58% 95 29.92 0.0
10 16:15 W 10 10.00 Mostly Cloudy BKN049 90.3 69.4 50% 95 29.92 0.0
10 15:55 W 8 10.00 Mostly Cloudy BKN047 BKN055 90 69.8 52% 95 29.93 0.0
10 15:35 W 8 10.00 Mostly Cloudy BKN044 BKN280 89.1 70.7 55% 95 29.93 0.0
10 15:15 W 9 10.00 Mostly Cloudy BKN045 89.4 70.5 54% 95 29.94 0.0
10 14:55 W 12 10.00 Partly Cloudy SCT044 89.2 70.5 54% 95 29.95 0.0
10 14:35 NW 9 10.00 Partly Cloudy SCT044 89.4 71.1 55% 96 29.95 0.0
10 14:15 W 9 10.00 Partly Cloudy FEW045 SCT380 89.4 70.2 53% 95 29.96 0.0
10 13:55 W 8 10.00 Partly Cloudy SCT043 89.8 70.3 53% 95 29.96 0.0
10 13:35 W 12 10.00 Partly Cloudy SCT041 87.6 71.2 58% 94 29.96 0.0
10 13:15 W 10 G 18 10.00 A Few Clouds FEW040 88.3 70.5 56% 94 29.96 0.0
10 12:55 W 8 10.00 Fair CLR 87.3 71.2 59% 93 29.97 0.0
10 12:35 Vrbl 3 10.00 Fair CLR 87.1 71.2 59% 93 29.97 0.0
10 12:15 NW 7 10.00 Fair CLR 86.7 71.6 61% 93 29.97 0.0
10 11:55 W 7 10.00 Fair CLR 85.6 73.2 67% 93 29.98 0.0
10 11:35 NW 7 10.00 A Few Clouds FEW033 85.1 73.2 68% 92 29.97 0.0
10 11:15 W 9 10.00 Fair CLR 85.8 71.2 62% 91 29.98 0.0
10 10:55 NW 7 10.00 Fair CLR 84 74.1 72% 91 29.98 0.0
10 10:35 NW 8 10.00 A Few Clouds FEW050 83.3 74.5 75% 90 29.98 0.0
10 10:15 Vrbl 5 10.00 A Few Clouds FEW050 82.6 75 78% 90 29.98 0.0
10 09:55 W 9 10.00 Fair CLR 82.2 74.7 78% 89 29.98 0.0
10 09:35 NW 5 10.00 Fair CLR 81.3 75.6 83% 88 29.98 0.0
10 09:15 W 8 10.00 Fair CLR 81.1 75.6 83% 87 29.98 0.0
10 08:55 W 3 10.00 A Few Clouds FEW060 80.2 76.3 88% 86 29.97 0.0
10 08:35 W 5 10.00 Partly Cloudy FEW009 SCT060 79.5 77.7 94% 85 29.97 0.0
10 08:15 W 7 10.00 Mostly Cloudy BKN011 BKN060 78.8 78.6 99% 83 29.97 0.0
10 07:55 W 7 9.00 Overcast BKN008 OVC013 78.3 78.3 100% 81 29.97 0.0
10 07:35 W 5 9.00 Overcast BKN009 OVC050 78.1 78.1 100% 81 29.96 0.0
10 07:15 SW 6 9.00 Mostly Cloudy SCT019 BKN049 77.9 77.9 100% 80 29.96 0.0
10 06:55 W 5 9.00 Overcast SCT006 OVC018 77.5 77.5 100% 79 29.95 0.0
10 06:35 W 5 10.00 Overcast OVC006 77.5 77.5 100% 79 29.95 0.0
10 06:15 W 5 9.00 Overcast OVC006 77.5 77.5 100% 79 29.94 0.0
10 05:55 W 7 9.00 Overcast OVC006 77.5 77.5 100% 79 29.94 0.0
10 05:35 SW 7 9.00 Overcast OVC005 77.2 77.2 100% 78 29.94 0.0
10 05:15 SW 6 10.00 Overcast OVC005 77 77 100% 78 29.93 0.0
10 04:55 SW 5 10.00 Overcast OVC006 76.6 76.6 100% 77 29.93 0.0
10 04:35 SW 6 10.00 Mostly Cloudy SCT007 BKN012 76.6 76.6 100% 77 29.93 0.0
10 04:15 SW 7 10.00 Fair CLR 76.6 76.6 100% 77 29.93 0.0
10 03:55 SW 6 10.00 Fair CLR 76.8 76.8 100% 77 29.93 0.0
10 03:35 SW 6 10.00 Fair CLR 76.8 76.8 100% 77 29.93 0.0
10 03:15 SW 5 10.00 Fair CLR 76.8 76.8 100% 77 29.93 0.0
10 02:55 SW 6 10.00 Fair CLR 76.8 76.8 100% 77 29.94 0.0
10 02:35 Vrbl 5 10.00 Fair CLR 77 77 100% 78 29.94 0.0
10 02:15 SW 5 9.00 Fair CLR 77.2 77.2 100% 78 29.94 0.0
10 01:55 SW 6 9.00 Fair CLR 77.4 77.4 100% 79 29.94 0.0
10 01:35 SW 6 9.00 Fair CLR 77.2 77.2 100% 78 29.95 0.0
10 01:15 SW 6 10.00 Fair CLR 76.6 76.6 100% 77 29.96 0.0
10 00:55 S 3 9.00 Fair CLR 76.6 76.6 100% 77 29.96 0.0
10 00:35 S 3 10.00 Fair CLR 76.6 76.6 100% 77 29.97 0.0
10 00:15 S 3 10.00 Fair CLR 76.3 76.3 100% 76 29.97 0.0
09 23:55 Calm 10.00 Fair CLR 75.9 75.9 100% 75 29.97 0.0
09 23:35 Calm 10.00 A Few Clouds FEW240 75.9 75.9 100% 75 29.97 0.0
09 23:15 S 3 9.00 Partly Cloudy SCT240 75.7 75.7 100% 74 29.97 0.0
09 22:55 SW 3 10.00 A Few Clouds FEW220 75.7 75.7 100% 74 29.96 0.0
09 22:35 S 3 10.00 Partly Cloudy FEW210 SCT240 76.1 76.1 100% 75 29.96 0.0
09 22:15 S 3 10.00 Partly Cloudy FEW160 SCT250 76.1 76.1 100% 75 29.95 0.0
09 21:55 S 3 10.00 Mostly Cloudy SCT160 BKN210 BKN260 76.3 76.3 100% 76 29.95 0.0
09 21:35 S 5 10.00 Overcast SCT160 OVC220 76.6 76.6 100% 77 29.95 0.0
09 21:15 S 3 10.00 Mostly Cloudy BKN210 77.2 76.3 97% 78 29.96 0.0
09 20:55 S 3 10.00 Partly Cloudy FEW210 SCT260 77.7 75.9 94% 80 29.96 0.0
Date Time (edt) Wind (mph) Vis. (mi.) Weather Sky Cond. Air Dwpt Max. Min. Relative Humidity Wind Chill (°F) Heat Index (°F) altimeter (in) sea level (mb) 1 hr 3 hr 6 hr
6 hour
Temperature (ºF) Pressure Precipitation (in)